ONEWEB-0330 (49108 NORAD) Tracking and Keplerian Element Data

This shows tracking and keplerian element data for the satellite.

Feedback or suggestion? Click here.




ElementValue
Catalog49108
NameONEWEB-0330
Epoch Orbit361
Epoch Day261.91667824
Epoch Year2021
RAAN356.5305
Inclination87.42
Eccentricity0.0021145
Argument of Perigee198.4748
Mean Anonmoly8.4673
Mean Motion15.17590815
Decay Rate-0.00997819
L11 49108U 21075AK 21261.91667824 -.00997819 00000-0 -53619-1 0 9992
L22 49108 87.4200 356.5305 0021145 198.4748 8.4673 15.17590815 3616

Live tracking and technical data element details for ONEWEB-0330 (NORAD 49108). ONEWEB-0330 can be tracked NOW for your location showing map with azimuth and elevation plus other details from your city location.

Track the satellite on the map from your city or location and see movement details for azimuth, elevation, latitude, longitude, range, height, and movement on the map or in text.







IsCatalogInMostPopularTable: catalog: 49108, numindb: 7
Update: records affected: 1



GetName: 49108 ONEWEB-0330

Hit Count: updated at: Fri, 24 Sep 2021 18:09:54 GMT